Park Rapids, MN

2:00 PM CDT on September 25, 2017 (GMT -0500)
Park Rapids Municipal

Weather History for KPKD - February, 2013

Change the Weather History Date:

Saturday, February 23, 2013

  Actual Average Record
Temperature  
Mean Temperature 14 °F -  
Max Temperature 24 °F 29 °F 55 °F (1958)
Min Temperature 1 °F 6 °F -25 °F (1993)
Degree Days  
Heating Degree Days 52    
Moisture  
Dew Point 12 °F    
Average Humidity 89    
Maximum Humidity 96    
Minimum Humidity 79    
Precipitation  
Precipitation 0.00 in - - ()
Sea Level Pressure  
Sea Level Pressure 29.88 in    
Wind  
Wind Speed 3 mph (WNW)    
Max Wind Speed 7 mph    
Max Gust Speed -    
Visibility 6 miles    
Events Fog    
Averages and records for this station are not official NWS values.
T = Trace of Precipitation, MM = Missing Value Source: NWS Daily Summary

Daily Weather History Graph

Daily Weather History Graph

Search for Another Location

Airport or City:

Trip Planner

Search our weather history database for the weather conditions in past years. The results will help you decide how hot, cold, wet, or windy it might be!

Date:

Astronomy

Feb. 23, 2013 Rise Set
Actual Time 7:10 AM CST 5:57 PM CST
Civil Twilight 6:39 AM CST 6:28 PM CST
Nautical Twilight 6:04 AM CST 7:03 PM CST
Astronomical Twilight 5:29 AM CST 7:38 PM CST
Moon 4:04 PM CST (2/23) 5:38 AM CST (2/23)
Length of Visible Light 11h 48m
Length of Day
10h 47m
Waxing Gibbous, 95% of the Moon is Illuminated
Feb 23
Waxing Gibbous
Feb 25
Full
Mar 4
Last Quarter
Mar 11
New
Mar 19
First Quarter

Hourly Weather History & Observations

Time (CST) Temp. Windchill Dew Point Humidity Pressure Visibility Wind Dir Wind Speed Gust Speed Precip Events Conditions
12:53 AM 17.1 °F 10.0 °F 15.1 °F 92% 29.90 in 10.0 mi North 4.6 mph - N/A   Overcast
1:30 AM 17.6 °F 12.3 °F 14.0 °F 86% 29.82 in 10.0 mi NW 3.5 mph - N/A   Overcast
1:39 AM 15.8 °F 7.2 °F 14.0 °F 93% 29.82 in 10.0 mi West 5.8 mph - N/A   Overcast
1:53 AM 16.0 °F 10.4 °F 14.0 °F 92% 29.90 in 10.0 mi WNW 3.5 mph - N/A   Overcast
2:01 AM 15.8 °F 10.2 °F 12.2 °F 86% 29.82 in 10.0 mi NW 3.5 mph - N/A   Overcast
2:53 AM 17.1 °F 11.7 °F 14.0 °F 88% 29.88 in 10.0 mi North 3.5 mph - N/A   Mostly Cloudy
3:04 AM 15.8 °F - 12.2 °F 86% 29.80 in 10.0 mi Calm Calm - N/A   Mostly Cloudy
3:22 AM 14.0 °F - 10.4 °F 86% 29.80 in 10.0 mi Calm Calm - N/A   Mostly Cloudy
3:53 AM 15.1 °F 7.7 °F 12.9 °F 91% 29.88 in 4.0 mi WNW 4.6 mph - N/A   Overcast
4:53 AM 17.1 °F 10.0 °F 15.1 °F 92% 29.88 in 10.0 mi NW 4.6 mph - N/A   Overcast
5:53 AM 18.0 °F 11.1 °F 16.0 °F 92% 29.88 in 10.0 mi NW 4.6 mph - N/A   Overcast
6:53 AM 18.0 °F 12.7 °F 16.0 °F 92% 29.89 in 10.0 mi WNW 3.5 mph - N/A   Overcast
7:53 AM 18.0 °F - 17.1 °F 96% 29.89 in 4.0 mi Calm Calm - N/A   Overcast
8:08 AM 17.6 °F - 15.8 °F 93% 29.81 in 2.5 mi Calm Calm - N/A   Overcast
8:22 AM 19.4 °F 12.8 °F 17.6 °F 93% 29.81 in 1.0 mi West 4.6 mph - N/A   Overcast
8:53 AM 19.0 °F 12.3 °F 17.1 °F 92% 29.89 in 1.8 mi West 4.6 mph - N/A   Overcast
9:05 AM 19.4 °F 11.5 °F 17.6 °F 93% 29.81 in 3.0 mi West 5.8 mph - N/A   Overcast
9:15 AM 21.2 °F 13.6 °F 17.6 °F 86% 29.81 in 5.0 mi WNW 5.8 mph - N/A   Overcast
9:53 AM 21.0 °F 12.4 °F 19.0 °F 92% 29.91 in 5.0 mi WNW 6.9 mph - N/A   Overcast
10:53 AM 21.0 °F 12.4 °F 18.0 °F 88% 29.91 in 10.0 mi West 6.9 mph - N/A   Overcast
11:44 AM 21.2 °F 13.6 °F 19.4 °F 93% 29.83 in 10.0 mi West 5.8 mph - N/A   Overcast
11:53 AM 21.9 °F 13.4 °F 19.0 °F 89% 29.91 in 10.0 mi West 6.9 mph - N/A   Overcast
12:53 PM 21.9 °F 17.2 °F 19.9 °F 92% 29.90 in 10.0 mi WNW 3.5 mph - N/A   Overcast
1:53 PM 23.0 °F 17.0 °F 19.9 °F 88% 29.89 in 10.0 mi West 4.6 mph - N/A   Overcast
2:20 PM 24.8 °F 17.9 °F 19.4 °F 80% 29.81 in 10.0 mi West 5.8 mph - N/A   Overcast
2:53 PM 24.1 °F 19.7 °F 19.9 °F 84% 29.88 in 10.0 mi WSW 3.5 mph - N/A   Overcast
3:53 PM 24.1 °F 19.7 °F 19.9 °F 84% 29.89 in 10.0 mi WSW 3.5 mph - N/A   Mostly Cloudy
4:00 PM 24.8 °F - 19.4 °F 80% 29.81 in 10.0 mi Calm Calm - N/A   Scattered Clouds
4:53 PM 21.0 °F 16.2 °F 17.1 °F 85% 29.90 in 10.0 mi West 3.5 mph - N/A   Clear
5:53 PM 21.0 °F - 17.1 °F 85% 29.90 in 10.0 mi Calm Calm - N/A   Clear
6:53 PM 19.0 °F - 15.1 °F 85% 29.91 in 10.0 mi Calm Calm - N/A   Clear
7:32 PM 10.4 °F - 8.6 °F 92% 29.84 in 1.2 mi Calm Calm - N/A   Clear
7:40 PM 8.6 °F 2.0 °F 6.8 °F 92% 29.84 in 0.5 mi WSW 3.5 mph - N/A Fog Light Freezing Fog
7:53 PM 10.0 °F - 7.0 °F 87% 29.94 in 0.5 mi Calm Calm - N/A Fog Light Freezing Fog
8:00 PM 10.4 °F - 8.6 °F 92% 29.85 in 0.2 mi Calm Calm - N/A Fog Light Freezing Fog
8:09 PM 10.4 °F - 6.8 °F 85% 29.85 in 1.0 mi Calm Calm - N/A   Mist
8:12 PM 10.4 °F - 6.8 °F 85% 29.85 in 2.0 mi Calm Calm - N/A   Partly Cloudy
8:19 PM 12.2 °F - 8.6 °F 85% 29.85 in 6.0 mi Calm Calm - N/A   Clear
8:53 PM 12.9 °F - 12.0 °F 96% 29.95 in 10.0 mi Calm Calm - N/A   Clear
9:53 PM 8.1 °F - 6.1 °F 92% 29.97 in 10.0 mi Calm Calm - N/A   Clear
10:12 PM 3.2 °F - 1.4 °F 92% 29.88 in 6.0 mi Calm Calm - N/A   Partly Cloudy
10:17 PM 6.8 °F - 1.4 °F 79% 29.88 in 1.8 mi Calm Calm - N/A   Clear
10:20 PM 6.8 °F - 3.2 °F 85% 29.89 in 1.0 mi Calm Calm - N/A   Mist
10:28 PM 6.8 °F - 5.0 °F 92% 29.89 in 0.2 mi Calm Calm - N/A Fog Light Freezing Fog
10:40 PM 6.8 °F - 3.2 °F 85% 29.89 in 0.5 mi Calm Calm - N/A Fog Light Freezing Fog
10:53 PM 3.9 °F - 1.0 °F 88% 29.98 in 0.8 mi Calm Calm - N/A   Mist
11:00 PM 3.2 °F - 1.4 °F 92% 29.89 in 2.5 mi Calm Calm - N/A   Mostly Cloudy
11:06 PM 5.0 °F - 1.4 °F 85% 29.89 in 7.0 mi Calm Calm - N/A   Scattered Clouds
11:14 PM 5.0 °F - 1.4 °F 85% 29.89 in 1.5 mi Calm Calm - N/A   Scattered Clouds
11:17 PM 5.0 °F - 1.4 °F 85% 29.89 in 0.8 mi Calm Calm - N/A   Mist
11:35 PM 6.8 °F - 3.2 °F 85% 29.89 in 0.2 mi Calm Calm - N/A Fog Light Freezing Fog
11:53 PM 1.9 °F - -0.0 °F 91% 29.99 in 0.2 mi Calm Calm - N/A Fog Light Freezing Fog